RH
89 90 84 71 53 34 40 43 36 36 37 33 35 38 42 44 47 57 38 43 48 54 66 80 82 90 71 72 73 74 78 79 87 85 78 85 89 84 93 96 96 95 86 94 96 93 95 95 94
86 84 73 54 43 34 44 37 37 33 34 34 38 42 45 55 41 40 40 45 48 53 56 68 80 81 74 76 83 72 94 82 79 82 80 84 79 83 76 90 92 93 97 97 93 92 94 93 95
81 83 78 43 35 42 45 39 39 36 34 36 44 33 38 51 37 37 41 45 49 53 52 74 80 88 82 88 83 76 79 76 78 79 84 82 84 85 91 96 96 96 94 94 91 95 93 94 95
85 67 53 41 42 41 40 39 37 38 35 33 30 42 40 38 40 42 45 45 50 54 54 74 77 83 79 82 82 80 79 82 78 81 79 78 88 86 92 94 88 97 94 95 96 94 94 95 96
87 53 36 35 41 38 34 34 32 35 35 33 26 39 47 50 49 47 47 46 51 54 61 74 75 68 71 82 83 83 78 78 81 82 81 87 94 93 89 94 97 93 92 95 91 87 83 76 85
60 46 30 34 40 38 34 31 30 32 35 32 31 38 51 52 47 47 46 48 52 54 59 74 74 76 70 82 79 86 85 85 78 82 80 90 80 89 83 93 86 93 94 93 94 81 77 74 73
49 30 29 29 39 42 39 30 32 30 32 30 26 37 46 46 49 49 49 50 52 61 69 70 72 80 74 82 79 78 87 80 94 95 91 89 92 95 93 90 77 95 94 90 78 75 78 73 70
41 28 30 30 33 41 33 32 27 27 32 26 26 36 50 47 52 49 49 50 57 63 62 66 80 82 69 72 87 84 82 87 95 90 92 94 78 78 76 76 90 93 92 93 85 73 74 74 74
35 24 28 29 31 36 31 34 29 25 31 32 29 27 37 50 48 46 47 51 58 60 60 59 62 69 76 72 80 78 76 77 74 72 79 82 88 86 69 81 85 92 95 75 70 71 73 72 70
28 22 28 25 25 31 30 30 32 30 30 34 38 39 45 48 46 40 41 43 50 54 58 58 59 59 64 61 73 80 71 76 69 77 78 64 83 79 66 73 78 81 82 74 69 69 66 71 69
27 28 27 25 22 26 30 31 28 29 33 31 39 43 44 43 42 36 35 36 42 52 55 62 65 68 59 60 65 62 63 63 70 78 73 70 69 66 61 66 81 79 76 76 75 76 71 72 69
23 26 26 26 26 27 28 28 30 29 28 26 30 35 38 38 38 37 35 37 42 48 53 54 61 69 62 62 60 62 60 62 59 68 77 72 64 69 71 64 69 71 68 71 65 57 68 67 65
20 25 25 26 27 25 26 29 29 30 26 24 30 34 34 33 38 40 39 40 40 43 49 50 61 74 72 75 64 58 55 60 60 68 70 65 62 67 67 67 65 68 66 62 68 68 71 70 76
22 23 24 26 28 28 29 30 27 32 24 28 32 33 32 34 37 42 43 41 41 40 41 48 59 70 68 68 74 62 56 53 62 66 66 80 70 69 65 64 65 66 65 65 68 72 71 69 71
22 23 24 26 28 31 28 35 29 31 26 30 32 32 32 34 37 42 44 43 42 41 41 45 55 60 68 70 72 62 57 49 56 64 77 78 77 83 78 66 65 64 66 74 70 79 69 76 70
22 21 21 25 28 29 28 36 32 28 27 29 30 32 34 34 36 40 43 44 46 43 46 48 48 51 60 60 67 59 58 57 58 61 64 77 82 85 76 68 62 62 66 65 70 70 71 69 77
20 17 19 23 24 24 26 31 32 26 25 26 29 30 32 35 38 39 42 44 44 48 52 55 55 53 57 67 66 68 63 63 61 63 64 70 77 80 69 67 63 72 65 61 62 64 73 70 72
16 14 17 18 22 25 24 23 30 27 25 25 27 26 30 32 34 37 40 42 44 47 54 59 58 60 65 65 72 66 64 65 68 67 64 69 71 76 79 67 72 73 69 71 68 72 72 75 68
12 12 14 17 20 23 21 20 27 27 27 26 24 25 26 28 26 31 35 38 40 45 51 58 64 63 68 67 64 62 60 61 63 64 72 82 78 76 80 71 69 76 76 76 75 70 76 72 71
11 12 12 18 21 22 21 20 21 25 26 26 24 25 24 21 22 27 31 33 37 40 48 55 61 69 73 64 64 60 59 55 56 59 66 77 77 77 78 78 69 76 69 74 78 75 74 65 68
11 9 11 13 22 20 21 16 20 21 23 24 23 22 22 23 24 24 28 29 31 36 43 52 61 64 71 64 67 70 70 68 63 59 61 64 75 77 79 79 70 71 78 66 78 75 77 70 61
8 10 13 17 16 14 16 14 13 16 23 25 22 23 22 22 22 23 24 28 29 33 39 48 58 64 68 70 60 66 57 52 48 52 50 55 67 71 72 76 79 81 68 67 71 72 78 76 61
10 14 13 13 13 10 15 13 14 14 18 21 22 21 20 21 21 21 22 23 27 31 37 44 56 63 63 69 64 64 67 53 55 54 57 60 60 67 66 70 76 78 73 67 75 71 73 71 76
8 11 12 12 10 11 9 10 8 9 9 11 16 18 19 19 19 21 22 23 24 29 36 41 53 65 68 69 74 69 59 61 55 57 56 54 49 51 63 69 74 80 79 76 69 75 72 78 76
7 8 9 11 10 10 9 11 8 9 10 11 13 16 18 20 20 21 23 24 25 27 34 40 50 63 66 68 68 70 69 68 67 68 57 54 49 48 51 66 76 71 72 80 79 75 80 78 81
8 7 8 16 11 9 12 10 9 10 13 14 14 17 14 14 16 18 21 26 29 31 35 40 45 58 62 64 67 69 71 66 62 62 60 57 53 51 55 64 70 74 78 79 83 80 71 78 78
9 9 6 7 7 8 7 9 10 11 13 13 13 14 10 11 18 22 21 25 32 33 37 40 43 53 59 57 66 70 71 70 56 62 65 65 69 66 70 78 76 76 81 85 86 78 80 84 83
8 6 8 8 13 13 9 11 11 14 13 15 14 12 10 12 17 18 23 25 30 34 36 40 43 50 55 52 56 62 66 71 69 71 72 69 69 74 83 90 90 86 85 88 92 80 80 92 84
8 9 8 6 7 10 11 9 7 13 12 14 13 10 13 14 17 21 26 29 30 34 34 37 44 50 60 50 50 56 58 66 79 69 67 69 67 70 84 93 91 89 90 91 93 92 92 92 84
7 7 7 9 11 8 10 9 11 10 11 11 13 12 15 17 21 28 34 39 39 40 39 45 45 46 40 42 58 62 64 74 67 62 64 68 65 76 86 91 93 91 92 92 93 92 85 84 82
Wind_Speed
0 0 2 4 4 1 9 6 3 11 7 7 6 4 9 9 7 8 20 13 17 16 15 14 13 10 9 10 9 10 9 9 10 9 8 9 9 10 11 10 12 13 13 14 14 14 14 14 14
3 0 3 4 1 8 8 5 8 8 9 11 9 7 5 10 9 15 16 18 16 16 16 14 13 8 8 7 7 8 8 8 10 9 7 8 9 11 10 11 13 13 13 13 14 14 13 13 14
3 0 3 4 5 9 9 10 8 8 10 6 5 8 3 5 14 11 19 19 16 14 14 13 12 7 7 8 6 7 8 8 9 10 9 11 11 11 11 11 11 12 12 13 13 12 12 13 13
4 5 4 4 13 9 12 8 8 9 7 4 10 14 10 14 9 10 19 17 15 14 13 11 9 8 8 8 8 9 9 8 9 11 9 11 10 12 11 11 11 12 11 11 11 11 10 9 8
4 2 3 11 13 10 9 8 6 6 5 7 7 11 11 10 11 18 17 15 14 13 13 11 11 10 10 8 8 8 9 9 10 11 11 11 11 11 11 10 11 11 10 11 9 9 8 7 6
4 4 6 10 12 8 8 6 7 9 8 10 15 15 9 11 16 16 15 14 13 13 12 11 11 10 10 9 10 9 9 9 10 11 11 9 10 11 11 10 10 9 9 9 7 7 6 4 6
5 2 8 10 10 8 6 3 6 9 9 10 7 13 8 12 15 14 14 13 12 12 12 10 10 8 8 10 9 9 9 10 11 9 11 9 11 10 10 9 9 9 9 8 7 8 9 10 10
4 1 5 4 7 9 7 6 8 9 13 9 6 6 11 15 15 14 13 12 12 11 11 11 10 10 9 7 8 9 9 9 10 10 10 8 9 9 9 9 8 9 7 6 6 6 8 9 8
4 2 7 8 3 8 10 10 9 9 9 6 4 10 19 19 16 15 13 11 10 10 10 11 10 9 8 8 6 8 7 8 9 8 8 7 7 7 8 7 7 7 7 4 4 4 6 5 7
4 8 8 5 6 11 9 8 9 11 10 14 14 17 19 18 16 14 13 13 11 11 10 10 9 9 8 7 7 6 6 6 7 7 6 6 5 5 6 5 5 4 4 3 3 3 4 4 3
1 8 4 6 8 11 12 11 6 11 5 12 15 15 16 16 13 12 11 11 12 10 10 10 9 8 8 7 7 6 6 6 6 6 5 6 5 4 4 5 5 4 4 4 3 2 3 2 1
4 7 4 7 8 10 9 11 11 7 8 12 15 16 15 12 13 11 11 10 11 11 10 10 9 9 9 8 7 6 6 6 6 6 5 4 4 3 3 4 4 3 3 3 4 4 3 3 3
7 6 7 9 7 8 11 8 9 8 9 14 16 14 13 12 12 10 9 10 10 11 11 10 10 10 10 8 7 6 6 6 6 5 5 4 3 2 3 3 3 2 2 4 4 4 4 2 4
5 6 7 7 9 9 8 9 8 8 12 16 15 13 12 11 12 11 10 9 10 10 11 11 11 10 10 8 8 6 6 6 6 5 5 4 3 3 3 4 3 3 2 1 2 4 4 5 5
2 3 6 6 7 7 7 8 4 13 15 17 16 13 11 11 11 11 11 10 10 10 11 12 12 12 11 9 8 7 7 7 7 6 6 5 5 5 4 4 4 4 3 4 6 6 8 7 9
4 4 3 7 5 6 8 9 9 15 14 16 15 12 11 11 12 11 10 10 10 9 10 11 11 11 12 10 9 8 7 6 6 6 6 7 7 6 4 5 5 5 5 6 7 9 8 9 9
4 5 0 5 8 4 7 9 10 14 13 14 14 14 12 11 12 12 12 11 11 10 10 11 11 11 11 10 8 7 7 7 6 7 7 8 8 9 7 6 7 7 7 8 9 10 8 6 6
8 5 2 3 8 7 5 7 12 14 13 13 14 14 13 13 14 16 15 15 14 13 13 12 13 11 11 9 9 9 8 8 8 9 8 9 9 9 7 7 9 7 9 10 9 11 11 10 8
13 8 6 3 5 6 5 2 11 14 13 12 14 14 15 15 16 16 16 16 16 16 16 17 16 15 13 12 11 10 11 10 10 10 11 12 10 10 9 9 8 7 9 8 10 10 9 11 8
8 7 5 5 4 7 3 5 8 13 14 14 14 14 15 16 16 17 17 17 18 18 18 19 20 19 18 15 13 11 9 10 10 9 10 11 13 11 11 11 9 7 8 9 9 9 10 11 8
10 7 5 4 7 6 5 10 10 13 12 13 14 14 15 16 15 15 17 19 19 20 21 22 22 20 19 16 13 11 11 11 11 12 11 11 11 11 12 12 11 10 9 10 7 8 8 10 8
2 1 3 5 7 1 7 3 10 12 14 15 16 16 16 16 16 15 19 20 20 19 18 20 22 22 20 19 16 15 13 11 9 9 9 10 10 11 12 12 11 11 9 11 10 9 9 9 11
6 2 3 3 6 7 10 6 9 7 13 17 17 17 18 17 17 17 19 18 18 17 19 19 21 22 21 21 21 18 17 14 12 11 10 11 11 12 12 12 12 12 11 13 15 13 14 12 13
8 7 5 4 8 9 5 7 7 9 10 15 16 17 15 15 15 15 17 18 18 18 18 19 21 21 21 21 20 20 16 15 12 11 11 10 11 11 11 12 12 12 14 14 15 16 16 15 16
9 10 7 7 7 2 6 5 5 6 4 3 6 9 11 13 14 15 15 17 17 19 20 20 20 21 21 21 21 21 20 18 17 15 14 13 11 12 13 13 12 13 14 14 13 15 14 15 16
16 15 9 5 5 4 4 5 3 2 2 4 7 8 8 7 10 13 16 17 18 19 21 23 23 21 24 27 26 23 20 18 17 16 15 15 14 13 13 14 15 15 15 14 12 13 14 13 14
9 12 9 13 6 8 3 4 7 6 6 8 12 11 8 6 5 5 9 16 18 21 22 24 24 24 25 24 20 20 19 19 17 15 14 14 16 17 16 17 16 15 15 14 12 12 12 12 14
11 5 9 10 10 9 5 5 2 12 12 13 13 13 9 6 4 5 7 11 16 21 21 21 22 23 22 19 16 17 19 19 18 16 16 15 17 17 16 15 13 13 13 13 12 11 11 11 12
9 12 11 12 10 9 8 8 6 12 16 16 15 11 10 5 3 3 3 8 12 15 18 19 21 20 14 13 14 13 13 16 17 16 17 14 16 16 16 15 13 9 11 12 12 11 11 12 10
13 18 20 11 16 11 10 7 4 9 15 15 16 13 10 6 5 5 5 8 11 13 14 15 16 15 14 13 10 10 9 10 12 14 17 15 15 15 16 14 14 9 9 11 12 11 10 12 11
Wind_Direction
135 261 306 268 227 179 64 71 86 118 120 91 101 28 53 35 360 82 134 135 137 138 142 138 138 127 112 108 104 107 110 112 125 132 132 128 128 117 112 106 108 102 100 107 102 103 102 99 101
134 241 241 284 294 78 70 42 87 100 95 111 93 111 57 76 68 121 134 142 139 136 140 141 139 132 115 116 102 93 108 122 127 123 118 118 121 114 115 110 104 108 105 110 108 108 107 103 102
135 104 287 284 58 56 76 64 80 108 132 127 103 61 44 81 121 123 131 141 137 135 137 143 143 134 119 116 118 103 108 108 114 113 108 110 112 114 110 107 110 111 104 104 111 111 111 114 99
168 207 227 80 84 67 88 80 89 121 129 66 122 95 82 93 121 128 139 140 137 138 133 141 132 129 121 112 110 105 108 111 113 110 107 109 123 118 113 110 112 111 110 110 111 114 117 122 112
275 247 137 89 81 90 87 82 91 89 86 126 128 108 106 89 120 134 141 142 134 137 133 133 128 126 115 117 110 102 102 112 123 119 115 114 111 114 121 115 105 110 116 113 104 104 104 112 124
220 267 120 89 90 91 90 85 89 81 101 103 113 114 89 117 134 140 142 138 135 131 128 132 137 132 123 115 113 114 110 118 120 122 124 112 112 119 110 117 118 116 111 110 92 87 72 89 126
302 319 77 88 104 97 101 94 86 99 110 108 133 109 111 139 137 142 141 138 133 132 135 138 144 145 125 121 114 115 111 114 111 116 112 110 118 112 117 118 114 118 117 121 99 85 77 90 111
278 255 109 77 80 98 122 92 108 97 93 124 149 135 145 141 148 143 143 140 133 140 142 144 150 151 138 127 108 114 117 118 108 109 113 117 108 111 113 110 114 115 123 118 109 96 88 100 95
258 169 90 87 78 128 138 124 91 115 122 81 108 92 126 144 150 149 147 145 144 148 155 156 155 155 152 139 134 110 113 114 109 109 118 102 111 110 104 111 104 117 123 131 135 124 111 109 100
276 67 54 39 90 135 142 126 123 151 112 113 104 107 130 147 156 158 158 157 154 156 156 155 162 161 156 148 141 129 128 123 131 129 128 126 104 112 120 125 114 122 135 149 156 164 139 104 90
97 57 56 75 83 131 127 126 125 136 138 145 139 140 148 153 160 162 159 154 155 154 162 166 166 170 167 163 156 150 146 142 140 137 140 131 134 126 136 130 153 136 125 147 160 193 195 156 104
96 73 77 94 121 126 128 135 132 68 118 144 139 147 154 164 160 162 157 159 153 165 167 165 166 171 174 167 166 162 162 163 157 160 157 151 158 143 146 143 141 148 162 156 180 174 175 188 205
50 74 92 105 138 130 134 133 127 83 138 141 139 151 157 161 155 154 152 158 169 172 169 167 168 170 171 167 168 168 170 170 164 165 168 165 173 158 166 162 167 161 155 158 183 172 176 204 269
72 80 101 123 129 143 134 133 150 120 138 143 155 165 161 158 157 157 169 172 175 177 176 174 176 178 178 177 175 175 176 177 178 171 177 191 190 196 191 192 191 193 208 193 220 228 222 223 243
196 133 130 137 156 147 148 138 123 143 151 156 168 170 168 174 171 177 177 178 178 177 178 183 185 186 188 194 196 194 190 184 188 194 199 201 215 216 210 207 228 234 227 247 248 253 267 262 277
235 234 215 137 182 143 234 106 129 160 163 167 175 175 185 192 196 192 192 188 184 180 181 187 189 190 191 194 197 196 195 194 197 201 207 221 233 245 237 226 235 251 262 268 264 266 267 276 265
205 7 3 148 194 167 235 112 149 169 173 172 183 187 194 197 208 209 211 208 201 196 190 194 195 193 191 194 195 198 198 204 211 217 222 225 234 245 251 241 251 254 272 275 280 280 283 270 262
343 306 199 268 171 213 198 127 149 173 179 176 186 191 193 200 208 208 211 212 209 205 202 201 202 201 198 196 203 211 217 222 227 230 231 230 236 239 250 255 257 263 276 285 282 300 301 294 282
298 290 259 126 142 222 227 255 160 176 186 189 186 194 192 203 202 205 209 212 213 211 209 205 203 204 202 205 208 218 226 229 236 240 242 237 236 234 240 255 265 255 269 275 283 289 294 294 310
270 269 211 127 159 230 172 242 185 179 196 196 196 193 202 199 198 202 210 209 214 213 215 214 210 204 203 208 215 226 238 242 245 247 248 245 238 233 243 252 264 265 274 274 278 276 283 296 303
229 277 149 30 162 219 252 237 194 200 201 203 209 203 201 205 206 203 210 215 210 210 210 212 211 209 209 211 216 224 237 248 247 244 249 243 234 233 239 249 265 271 273 279 268 268 271 287 295
244 46 199 157 223 54 225 111 193 186 199 205 209 210 209 204 206 207 204 211 212 213 210 210 207 205 207 207 216 222 234 240 237 244 253 252 249 245 247 253 254 259 262 273 272 268 258 268 282
69 141 130 230 266 281 170 260 111 187 203 205 208 208 212 208 204 205 210 207 213 204 207 205 203 205 205 206 209 215 226 238 242 243 251 249 252 251 253 251 254 259 265 266 266 266 262 266 269
145 145 151 221 269 249 90 270 152 163 218 196 197 211 213 209 205 207 210 212 212 206 207 204 201 205 204 206 212 217 224 227 239 244 251 249 247 244 242 243 256 265 269 270 268 267 269 260 263
214 209 232 224 202 268 91 237 286 123 122 199 172 189 209 215 216 205 204 206 208 205 205 203 200 202 203 207 213 216 222 225 232 241 254 258 252 250 249 246 250 261 270 275 280 281 280 273 265
213 243 243 223 235 143 151 231 137 131 185 191 173 154 155 193 198 214 197 200 201 204 202 201 196 202 203 207 209 212 219 226 235 241 248 263 265 264 264 257 254 260 268 272 275 278 283 285 282
198 235 273 284 225 268 169 195 211 207 180 169 168 152 134 121 152 184 198 189 197 201 200 200 199 204 210 209 215 216 212 222 232 238 245 256 263 268 266 261 258 258 262 261 259 269 274 276 283
264 266 212 233 267 260 201 253 150 175 165 164 165 165 144 138 171 188 187 189 196 205 207 203 205 209 211 207 212 216 218 224 231 233 240 255 262 266 268 264 256 257 260 260 257 263 274 277 288
189 223 240 291 241 258 235 224 130 177 172 171 172 159 153 156 167 217 215 196 198 201 204 204 208 216 202 206 204 210 220 229 226 230 243 248 261 264 266 258 245 244 262 256 249 254 264 267 277
270 225 226 222 224 245 293 293 118 174 177 181 167 156 146 150 151 145 140 163 179 190 191 197 206 216 207 197 192 206 229 227 233 242 242 249 258 261 258 251 252 241 242 253 247 248 250 256 256